Weather in Medyn

Russia / Kaluga Oblast     54°58′07″N   35°51′27″E
temp.,
°C
wind,
m/s
gust,
m/s
humid.,
%
clouds,
%
prec.,
mm/h
press.,
hPa
HPBL,
m
15 may, sat
sat1500:00+12ene2599100 3.8 1009111
03:00+12se269847 3.8 1008121
06:00+12s279711 0.0 1007176
09:00+17ssw36810 0.0 1008501
12:00+20ssw5859100 0.3 10081553
15:00+18ssw486997 0.8 1008665
18:00+16ssw498679 1.9 1008648
21:00+13ssw4129415 3.4 1009453
16 may, sun
sun1600:00+12ssw41197100 0.0 1010406
03:00+10s3109876 0.0 1011261
06:00+11ssw311975 0.0 1012335
09:00+15ssw58800 0.0 1012684
12:00+19ssw566265 0.1 10121521
15:00+19sw3667100 0.3 10131437
18:00+19sw356912 0.1 1013724
21:00+14ssw118413 0.1 101411
17 may, mon
mon1700:00+12ese1186100 0.0 101410
03:00+11ese2395100 0.0 101451
06:00+12e2590100 0.0 1014123
09:00+19e476915 0.0 1013509
12:00+23ese6860100 0.0 10111012
15:00+25ese5106096 0.0 10091200
18:00+23se6116613 0.0 10071033
21:00+19ese5157671 0.0 1007744
18 may, tue
tue1800:00+18se5158099 0.0 1006567
03:00+16ese41287100 0.0 1005380
06:00+15se4138684 0.0 1004446
09:00+20sse61275100 0.0 1004975
12:00+19s71171100 0.1 10061237
15:00+19s5765100 0.1 10061319
18:00+18sse3678100 0.4 1006713
21:00+14s2794100 2.5 1007146
19 may, wed
wed1900:00+13s2296100 0.0 100625
03:00+12ese1196100 0.0 100610
06:00+13ene2497100 0.4 1004144
09:00+17sse3684100 1.8 1002628
12:00+17s3689100 3.3 1001573
15:00+12w71394100 6.4 1001620
18:00+10w61594100 3.3 10041148
21:00+11wsw51296100 4.4 1005782